Terminal Aerodrome Forecast
Issued by NWS

Home | Current Version | Previous Version | Text Only | Print | Product List | Glossary On
Versions: 1 2 3 4 5 6 7 8 9 10 11 12 13 14
127
FTUS46 KMTR 132352
TAFOAK
TAF
KOAK 132352Z 1400/1506 28009KT P6SM FEW250
     FM142100 28013G20KT P6SM SKC
     FM150300 30008KT P6SM SKC=

USA.gov is the U.S. government's official web portal to all federal, state and local government web resources and services.